RH
44 46 47 44 47 47 45 45 42 44 44 43 44 41 34 28 26 25 22 19 17 14 11 9 7 7 7 7 7 6 5 4 4 4 4 5 5 5 5 5 5 5 6 6 7 7 6 6 6 6 6 8 7 7 8 9 11 10 17 21 14 13 12 10 11 11 11 11 12 11 11 11 12 12 11 14 16 14 14 14 16 17 17 17 17 18 18 18
41 43 46 44 45 47 48 47 43 44 46 45 42 35 29 26 24 22 19 17 14 11 9 7 6 6 6 6 6 6 5 4 4 4 4 5 5 5 5 5 5 5 5 6 6 6 6 6 6 6 6 7 7 8 8 8 10 11 16 18 12 11 12 11 11 11 11 12 12 11 11 11 12 11 11 17 18 15 17 17 17 18 18 18 18 18 18 19
40 41 45 44 45 47 49 47 43 42 43 40 36 32 28 23 21 20 17 14 12 10 8 7 6 5 5 6 6 6 6 5 3 4 5 5 5 5 4 4 5 5 5 5 6 6 6 7 7 7 7 7 8 8 8 8 9 11 14 14 10 10 12 11 10 11 12 12 11 11 10 11 12 11 13 18 19 18 19 19 18 18 18 18 18 18 19 20
43 41 44 45 46 47 48 45 38 35 34 34 33 31 26 22 20 18 14 11 11 9 7 7 6 5 5 5 6 6 7 6 4 4 5 5 5 5 5 4 5 5 6 6 6 6 7 7 7 8 8 8 8 9 9 10 10 11 13 13 10 10 13 11 10 11 11 11 11 10 10 11 13 13 14 17 19 21 20 18 18 18 17 18 18 19 20 20
49 41 42 46 45 46 47 40 32 30 31 32 31 28 23 22 20 15 11 9 9 9 7 6 5 5 6 6 6 7 9 8 4 4 4 5 5 5 5 5 6 6 6 7 7 6 7 7 7 8 8 8 9 10 9 10 12 11 11 11 10 10 12 11 10 11 11 11 10 10 11 11 13 14 14 15 19 21 19 19 18 17 18 18 18 19 20 19
53 41 41 45 43 45 43 35 32 32 31 30 27 24 22 20 16 11 8 8 8 7 6 6 6 6 6 5 5 6 8 7 4 4 4 5 5 5 5 5 6 7 7 7 7 7 6 7 7 8 8 9 10 11 10 10 12 13 12 10 10 11 12 11 10 11 11 11 10 10 11 12 14 15 15 15 18 19 19 19 18 17 18 18 19 19 19 19
56 42 41 44 43 45 41 33 35 33 29 27 24 22 20 16 12 9 7 7 7 5 5 6 5 5 4 4 4 3 5 5 4 4 4 4 5 5 6 6 7 7 6 7 7 7 7 7 8 8 10 10 10 12 11 10 11 14 13 10 11 12 11 12 11 11 11 11 10 11 12 13 15 16 15 16 17 18 19 20 18 18 18 18 19 19 18 18
55 44 42 42 41 45 40 32 32 31 27 25 23 21 16 11 8 7 7 7 5 4 4 5 4 5 5 5 6 4 4 4 4 4 4 5 5 5 6 7 7 7 6 6 7 7 7 8 8 8 11 11 10 11 11 12 13 13 13 12 12 12 12 12 11 11 11 11 11 13 15 15 16 16 15 17 18 18 19 19 18 19 18 19 19 18 19 19
51 47 44 41 39 43 41 34 29 28 26 23 21 17 11 7 6 6 6 5 4 4 4 4 4 4 5 6 7 6 5 5 5 5 5 5 6 6 6 7 7 7 6 6 7 7 7 8 9 9 11 10 10 11 11 14 15 13 13 13 12 11 13 13 12 12 12 12 12 13 15 15 15 16 17 17 18 18 19 19 18 19 18 19 18 19 20 20
49 48 46 42 41 43 41 35 29 26 24 21 17 13 8 7 7 5 5 4 4 4 4 4 4 4 5 5 5 6 5 5 5 5 6 6 6 6 6 7 7 7 6 6 7 7 8 8 9 10 10 10 11 11 11 13 12 11 13 13 13 13 13 13 12 13 13 12 13 14 15 16 16 17 18 18 18 18 19 19 19 18 18 18 19 19 20 21
43 44 42 43 45 42 36 32 28 24 21 17 12 8 7 7 6 5 4 4 4 4 4 4 4 4 4 4 5 6 6 6 6 6 7 6 7 7 7 7 7 7 7 7 7 7 9 9 9 10 10 12 12 12 12 10 11 12 13 14 13 14 14 13 13 14 14 13 13 14 16 18 17 18 18 18 18 18 18 20 19 18 18 18 19 19 20 22
35 36 38 45 49 41 32 29 26 22 16 11 8 6 6 5 5 5 4 4 4 3 4 4 5 5 4 4 5 7 6 6 7 6 7 7 7 7 7 7 7 7 7 8 8 8 10 10 10 10 11 12 14 14 12 10 12 13 15 17 16 15 15 14 14 14 14 14 13 14 18 21 20 19 18 18 19 19 19 19 19 19 19 19 19 20 21 23
34 34 38 46 48 39 30 26 23 19 13 8 6 6 5 5 4 4 4 4 4 3 4 5 5 6 6 5 6 7 7 7 7 7 7 7 8 7 7 8 7 7 8 8 9 9 10 11 11 11 11 13 14 13 12 11 12 13 16 19 20 20 18 14 15 15 14 14 13 14 21 22 20 19 19 18 19 19 19 19 18 19 19 20 20 21 23 24
38 38 39 40 39 34 26 21 19 15 12 9 7 7 6 4 4 4 4 3 4 4 5 5 6 6 5 6 7 7 8 8 8 8 8 8 8 8 8 8 7 7 8 9 10 10 10 10 10 11 11 13 13 13 15 14 13 16 19 21 22 22 19 16 15 15 15 14 13 17 24 23 19 19 19 19 19 19 19 19 20 20 20 21 21 23 25 26
43 40 37 34 32 28 19 13 12 10 10 9 7 7 5 4 5 4 4 4 5 5 5 6 6 6 6 7 7 8 8 8 8 8 8 8 9 9 8 8 8 8 9 9 9 10 11 10 10 10 11 13 14 16 19 17 17 20 21 22 23 20 20 19 16 15 16 15 14 18 24 23 20 19 19 19 20 20 21 20 21 22 22 22 23 24 26 27
48 42 35 29 27 24 15 9 8 8 8 8 7 6 4 5 5 4 4 5 5 6 6 7 7 7 8 7 7 8 9 9 9 9 9 9 9 8 8 8 9 10 10 10 10 10 11 11 11 11 12 13 16 21 22 21 23 24 21 20 20 18 20 21 19 17 16 15 16 18 22 23 21 20 20 20 21 21 22 21 21 22 23 24 24 25 27 29
51 43 32 24 19 17 14 9 8 8 8 7 6 5 5 5 4 4 5 5 6 6 6 7 7 8 9 8 8 8 9 9 9 9 9 9 9 9 9 9 10 10 10 11 11 11 11 11 12 12 13 14 17 21 23 21 21 23 22 21 21 20 20 21 21 18 17 18 18 21 24 23 21 21 21 21 22 23 23 22 22 23 24 25 26 27 29 31
52 41 29 21 13 10 10 9 8 8 7 6 5 5 5 5 5 5 5 5 6 6 7 7 8 10 9 8 9 9 9 10 9 10 10 10 10 10 9 9 10 11 11 11 12 11 11 11 12 14 15 16 17 20 20 17 17 20 22 22 23 24 22 22 21 18 19 21 20 22 25 23 22 22 22 23 24 24 24 23 24 25 26 27 27 29 31 32
49 40 28 20 11 7 7 7 8 7 6 6 6 7 7 6 6 6 6 6 6 8 9 8 10 11 9 8 9 9 9 10 10 10 10 10 11 11 11 11 11 12 12 13 13 12 12 13 15 17 17 17 18 19 18 16 18 20 21 21 23 25 24 22 20 17 18 20 21 23 25 24 24 24 24 25 26 26 26 26 26 27 28 29 29 31 33 34
44 36 28 21 10 6 7 7 8 7 6 7 6 8 10 8 7 7 6 6 7 9 9 8 9 9 9 9 10 9 10 10 10 10 10 10 11 12 13 12 12 13 15 17 16 13 13 16 18 17 17 17 16 18 18 18 19 20 21 23 24 26 23 20 19 19 19 20 24 25 25 26 25 26 25 26 27 27 27 27 28 29 29 31 32 34 35 37
40 33 27 24 13 7 8 7 7 6 6 7 6 8 10 9 9 8 8 8 8 8 8 8 8 9 9 9 10 10 10 10 10 10 11 11 11 12 13 13 15 15 16 17 15 14 14 16 17 15 15 15 16 19 19 20 21 21 22 24 27 26 21 18 19 20 20 21 26 25 25 27 27 27 27 26 28 28 28 29 30 31 32 33 35 37 38 40
39 32 25 22 15 9 8 6 6 6 6 7 6 8 8 8 9 9 9 9 9 9 8 9 9 9 9 9 10 10 10 10 10 10 11 11 12 13 13 15 17 16 17 17 16 18 17 16 17 15 15 18 19 22 20 20 22 23 24 24 25 25 22 22 22 22 21 22 27 26 26 28 27 28 28 27 29 29 30 31 32 33 34 36 38 40 41 43
36 32 23 17 13 10 9 7 6 7 6 6 6 7 7 8 9 9 9 10 10 10 9 9 9 9 10 10 10 10 10 11 11 10 11 12 12 14 14 16 18 17 18 21 21 20 17 16 16 15 16 19 21 22 22 22 22 23 23 21 22 23 23 24 23 22 23 25 28 28 29 30 29 28 29 29 29 30 31 32 34 35 36 39 41 43 45 46
34 29 23 15 11 9 9 8 8 7 6 6 7 7 7 7 8 9 10 11 11 10 10 10 10 10 10 10 10 11 12 12 12 12 11 12 13 14 14 16 21 20 18 22 22 19 16 15 16 17 19 20 21 23 23 21 21 24 24 21 21 22 22 24 24 24 26 29 28 27 30 31 30 30 31 31 31 31 33 35 35 36 39 42 43 46 47 47
32 27 21 12 9 8 7 8 8 7 6 6 7 7 7 8 8 9 10 13 13 12 12 11 11 10 10 11 11 12 13 12 13 13 12 13 14 15 15 15 20 22 21 22 21 18 17 15 15 19 22 22 22 22 20 20 21 24 25 22 20 21 23 24 27 27 29 31 28 27 34 36 32 32 32 33 34 34 36 37 38 40 41 43 45 47 48 48
30 26 20 10 8 7 7 8 6 6 7 6 6 7 7 8 9 8 11 17 17 14 13 12 12 11 10 11 12 12 14 14 13 13 13 13 13 16 17 17 18 21 21 22 21 18 17 17 19 21 21 22 23 21 20 21 22 23 23 22 22 23 24 26 27 28 30 31 28 28 35 37 32 32 34 34 36 37 39 40 40 42 43 44 46 48 49 49
29 26 19 10 8 7 7 8 6 6 8 8 7 8 7 8 9 9 13 19 18 15 13 12 12 12 12 12 11 13 15 14 14 13 13 14 14 15 18 20 20 20 19 20 20 18 19 21 23 25 24 23 22 19 20 21 21 22 21 21 24 24 24 26 26 29 32 31 30 31 32 33 33 34 35 35 37 39 41 42 42 42 43 45 47 50 51 52
28 25 18 10 8 8 7 8 7 7 8 9 9 8 8 9 8 11 17 20 16 13 12 13 12 12 13 12 11 13 14 13 14 14 14 14 14 14 17 20 21 20 19 22 21 18 20 22 22 25 25 22 19 18 20 20 20 23 24 23 25 25 25 27 27 31 33 31 34 34 31 33 37 35 36 37 37 41 43 43 44 44 45 47 50 53 54 55
25 25 17 9 9 8 7 8 7 7 7 9 9 8 9 9 9 14 20 18 15 13 13 13 12 12 13 13 12 13 14 14 14 15 15 14 14 15 17 18 20 21 20 23 26 22 20 21 21 23 22 20 19 19 21 21 20 22 25 24 25 27 28 29 30 32 34 35 37 35 32 36 38 36 38 39 40 43 45 45 47 46 46 50 54 56 57 57
23 22 13 8 9 7 7 7 6 7 7 8 9 8 9 10 15 20 18 14 15 15 13 13 12 12 15 16 15 14 15 15 14 15 15 14 13 14 16 16 19 23 23 24 27 24 21 22 23 22 20 19 20 20 21 21 21 22 24 25 25 29 31 31 32 32 35 41 40 34 33 38 42 40 39 42 45 47 48 49 51 51 51 54 57 58 58 58
23 17 9 8 8 7 7 7 6 6 6 7 9 9 10 14 20 21 16 13 14 15 14 16 15 15 17 17 15 15 17 15 14 16 17 17 16 15 17 17 19 24 28 27 25 24 25 26 24 20 19 20 22 22 22 22 22 23 26 26 25 28 30 31 35 35 38 45 41 33 34 39 44 44 41 45 50 51 52 53 55 56 56 57 58 58 59 58
19 12 7 8 7 7 7 6 7 6 6 8 9 10 15 19 18 16 15 13 15 16 16 17 17 17 18 18 16 17 18 15 14 17 20 22 22 20 20 21 21 22 23 23 23 25 28 28 26 22 20 21 22 23 25 26 27 26 26 27 30 34 34 36 42 41 40 42 39 35 36 39 43 42 43 48 51 52 53 52 53 55 56 56 58 58 58 59
12 8 8 7 7 7 6 6 6 6 7 8 9 13 18 20 18 16 15 13 14 16 16 17 18 17 18 17 16 18 17 14 16 17 18 23 25 23 22 23 24 22 20 21 22 24 28 27 26 24 21 20 22 23 23 25 28 27 26 29 35 37 38 42 46 45 42 40 36 35 39 43 42 41 44 49 49 50 49 48 50 53 54 55 57 57 58 59
9 8 8 7 7 6 5 6 6 6 7 7 11 17 16 14 15 15 15 15 16 17 19 19 18 18 18 16 15 18 17 15 18 19 20 24 25 23 23 24 24 25 24 23 22 22 24 25 24 24 22 21 24 23 23 25 29 30 29 31 35 36 38 44 46 44 42 40 36 35 42 47 43 41 45 46 47 48 47 48 52 54 55 56 56 57 59 60
8 8 7 7 6 5 6 6 6 7 6 8 16 19 15 13 15 14 15 17 17 18 20 20 19 19 18 17 17 18 17 16 18 20 22 24 23 21 23 24 23 25 26 24 22 23 23 24 25 23 21 22 24 25 26 28 29 30 32 33 35 36 38 42 44 40 39 44 44 40 43 46 42 41 45 46 48 48 49 51 54 56 57 57 57 58 59 59
8 7 7 7 6 5 6 6 7 7 7 12 19 19 17 16 16 16 18 18 17 18 19 19 19 18 17 17 19 18 17 18 19 20 21 22 23 22 23 25 24 24 26 24 23 24 24 24 26 24 22 24 25 25 27 27 26 30 33 34 34 36 38 40 44 42 42 48 49 42 41 42 40 42 44 46 49 50 52 55 57 57 58 58 59 59 60 59
7 7 7 7 5 6 6 6 8 7 8 16 19 17 19 18 16 20 21 18 17 18 17 16 17 17 16 16 18 17 18 19 18 19 19 20 22 23 25 27 24 22 25 25 25 25 25 27 28 26 25 25 25 26 27 27 27 30 33 34 35 36 40 41 44 47 50 53 49 42 44 45 43 44 44 45 50 52 54 57 58 59 59 59 60 60 60 61
7 7 7 7 6 6 7 7 8 8 10 17 18 15 18 19 17 21 21 18 19 19 16 16 17 17 16 16 17 18 18 18 18 19 19 20 22 23 25 26 24 23 23 25 27 26 26 28 28 28 27 26 27 28 29 28 29 30 32 35 37 38 43 45 45 50 54 57 53 45 47 49 48 49 49 48 51 54 55 58 59 60 59 60 61 61 62 62
7 8 9 7 6 7 9 9 9 10 13 17 19 15 17 21 20 18 18 19 20 18 15 16 17 17 16 17 17 18 19 18 19 19 20 21 21 23 25 24 24 25 24 25 28 28 27 27 27 28 27 27 28 31 33 32 31 32 34 36 39 42 47 46 46 50 54 59 61 54 50 50 50 52 51 48 50 53 55 58 60 59 58 60 61 61 62 62
7 9 10 8 7 8 10 9 10 15 18 18 18 18 19 23 22 18 17 19 19 17 15 17 17 16 17 18 18 18 20 20 20 20 21 22 23 24 26 26 26 26 25 26 27 28 28 27 29 30 28 28 31 32 33 34 35 36 38 39 40 44 47 46 46 51 54 59 67 66 58 49 45 48 48 46 49 52 55 58 59 59 59 61 61 61 62 63
8 11 12 9 9 8 10 11 12 18 22 18 18 21 21 22 23 19 17 18 19 17 17 19 19 18 19 19 18 19 20 21 21 21 22 22 23 25 28 30 30 29 27 27 28 29 28 27 30 32 30 31 33 31 31 34 36 37 40 43 44 47 49 48 49 53 54 57 65 69 64 49 41 44 45 45 49 50 53 57 58 59 60 61 61 61 63 63
11 14 13 9 9 9 11 16 16 19 22 20 18 21 21 21 22 21 18 18 19 18 18 21 22 22 21 21 21 21 21 21 21 22 22 24 26 29 30 31 31 30 28 27 29 28 27 29 31 31 31 31 32 31 31 34 35 35 38 41 45 49 49 49 54 56 55 57 60 66 65 50 40 43 44 44 46 47 51 55 56 58 60 61 60 60 63 64
11 13 11 9 9 9 12 17 20 21 23 21 19 19 20 21 21 21 20 19 19 19 20 22 23 20 20 21 21 20 21 21 22 23 24 27 30 33 34 32 30 31 29 27 29 27 27 31 32 32 34 32 32 32 32 34 35 35 38 40 43 49 50 51 57 56 56 58 59 65 67 50 39 43 42 40 43 45 50 53 54 57 58 59 60 60 62 65
9 10 9 8 8 9 12 18 22 22 21 20 19 18 18 19 19 20 21 20 19 18 19 22 21 18 20 22 22 22 22 21 22 23 23 26 31 33 33 31 31 33 31 29 30 28 27 30 31 33 36 35 35 37 36 37 37 37 40 43 44 49 52 52 54 54 56 56 56 64 65 46 38 43 40 39 44 45 48 51 52 55 58 59 60 59 62 65
10 11 10 9 8 8 12 17 21 22 22 20 18 18 18 18 17 18 20 19 17 17 18 19 19 19 22 22 22 23 23 21 22 23 24 26 31 33 31 30 32 34 31 29 29 28 29 32 31 32 37 37 38 40 40 41 41 40 40 42 44 48 50 49 53 58 58 54 53 60 57 40 35 40 39 41 45 44 46 49 50 54 58 60 60 59 62 65
10 12 13 13 10 8 11 13 14 17 23 20 15 16 18 18 17 17 18 18 16 16 17 17 17 19 21 22 22 23 24 23 22 23 24 26 31 35 32 29 32 33 30 28 27 29 33 34 32 34 37 37 37 38 39 41 41 41 41 42 45 48 48 51 57 60 58 55 52 51 49 41 36 36 38 41 44 44 45 47 50 54 58 60 60 60 62 66
10 13 15 13 10 11 12 13 12 14 18 17 14 14 16 18 18 17 17 18 18 17 17 17 17 18 20 22 23 23 25 25 23 23 25 26 30 34 33 31 33 32 30 28 27 30 35 35 35 36 37 36 37 37 39 41 41 41 42 44 48 50 50 51 53 53 53 54 50 43 44 46 40 35 38 42 42 43 44 46 50 55 59 61 60 60 64 67
11 12 12 10 12 15 13 13 14 13 14 15 15 15 16 18 19 18 17 17 18 18 17 18 19 20 22 22 20 21 24 24 24 24 25 26 29 31 31 33 35 33 31 29 28 31 34 35 36 37 37 38 39 39 40 41 42 43 44 44 47 51 52 49 47 49 50 51 47 41 42 45 40 36 40 42 42 43 44 46 51 56 60 62 61 62 66 68
10 10 9 9 12 14 12 13 14 13 13 14 15 16 17 17 17 18 17 16 18 19 18 17 19 22 25 23 19 21 23 21 22 24 25 27 28 29 30 32 35 36 34 31 30 31 33 37 39 37 36 38 39 40 42 43 44 45 45 45 45 48 50 48 46 47 48 48 44 41 43 43 39 39 42 42 41 43 43 46 52 58 62 63 61 63 67 68
9 9 9 8 9 10 11 14 14 13 13 12 12 14 17 17 17 17 16 13 15 18 17 17 21 24 24 22 20 21 23 22 20 22 25 26 26 29 30 31 35 39 36 33 34 32 32 37 39 36 35 36 38 41 43 45 46 45 43 44 44 46 48 49 48 48 49 48 45 45 48 44 38 40 43 42 41 42 44 47 52 58 62 63 61 63 66 68
9 9 7 9 11 10 10 12 12 14 14 12 12 13 14 17 18 16 15 13 14 17 17 17 21 23 22 21 22 23 24 23 21 21 23 23 23 26 27 28 33 39 38 36 36 35 33 37 40 37 36 36 37 39 41 42 45 46 45 45 45 45 47 47 48 49 50 49 47 48 49 43 39 41 43 40 40 42 44 46 51 57 61 62 62 63 66 68
8 8 7 9 12 11 10 10 10 11 11 12 14 13 13 14 15 12 11 13 14 16 16 16 18 21 21 21 22 22 22 22 21 21 22 21 22 24 25 26 29 35 38 37 37 38 36 37 39 38 38 38 39 39 40 41 46 48 48 47 45 45 46 45 44 46 47 46 47 47 43 39 39 42 41 38 38 41 43 44 49 55 59 61 62 62 64 66